Hourly Data Report for July 09, 2021

TORONTO CITY
ONTARIO
Current Station Operator: ECCC - MSC

43°40'00.000" N
79°24'00.000" W
112.50 m
6158355
71508
XTO

Download Data

Hourly Data (July 2021)
Hourly Data Report for July 9, 2021
TIME
LST
Temp Definition
°C
Dew Point Definition
°C
Rel Hum Definition
%
Precip. Amount Definition
mm

Wind Dir Definition
10's deg

Wind Spd Definition
km/h
Visibility Definition
km
Stn Press Definition
kPa
Hmdx Definition


Wind Chill Definition


Weather Definition


00:00 18.5 17.9 96 0.0       99.75     LegendNANA
01:00 18.7 18.1 97 0.2       99.72     LegendNANA
02:00 18.8 18.2 97 0.3       99.70     LegendNANA
03:00 18.9 18.3 96 0.0       99.68     LegendNANA
04:00 18.9 18.4 97 0.0       99.71     LegendNANA
05:00 19.1 18.4 96 0.0       99.76     LegendNANA
06:00 18.5 17.7 95 0.1       99.79     LegendNANA
07:00 18.5 17.7 95 0.3       99.81     LegendNANA
08:00 18.6 17.1 91 0.1       99.86     LegendNANA
09:00 19.4 17.3 87 0.0       99.89     LegendNANA
10:00 19.8 17.4 86 0.0       99.91     LegendNANA
11:00 19.1 17.0 88 0.5       99.94     LegendNANA
12:00 19.5 16.7 84 0.0       99.95     LegendNANA
13:00 19.5 15.7 79 0.0       99.99     LegendNANA
14:00 19.7 16.0 80 0.0       99.99     LegendNANA
15:00 19.5 15.7 79 0.0       100.00     LegendNANA
16:00 19.0 15.5 80 0.0       100.05     LegendNANA
17:00 19.1 15.5 80 0.0       100.07     LegendNANA
18:00 18.1 15.1 83 0.0       100.13     LegendNANA
19:00 18.2 15.3 83 0.0       100.16     LegendNANA
20:00 18.2 15.4 83 0.0       100.24     LegendNANA
21:00 18.1 14.8 81 0.0       100.33     LegendNANA
22:00 17.9 14.6 81 0.0       100.36     LegendNANA
23:00 17.7 14.5 81 0.0       100.38     LegendNANA

Notes on Data Quality.

Legend

  • E = Estimated
  • M = Missing
  • NA = Not Available*
  • [empty] = Indicates an unobserved value
Date modified: